Flag for Philippines Weather past 2 weeks in Olongapo, Philippines

Now
86 °F

Partly sunny.


Feels Like: 88 °F
Forecast: 78 / 92 °F
Wind: 12 mph from East

Location: Subic Bay Weather Station

Current Time: Apr 27, 2015 at 8:44:14 AM

Latest Report: Apr 27, 2015 at 8:00 AM


Visibility: N/A

Pressure: 29.89 "Hg

Humidity: 52%

Dew point: 66 °F

Location of OlongapoLocation

Historic Weather in Olongapo — Graph

°F

Olongapo temperature yesterday

Maximum temperature yesterday: 97 °F (at 1:00 PM)
Minimum temperature yesterday: 77 °F (at 1:00 AM)
Average temperature yesterday: 86 °F

Past Weeks' High & Low Weather Summary

 TemperatureHumidityPressure
High97 °F (Apr 18, 1:00 PM)89% (Apr 14, 6:00 AM)29.95 "Hg (Apr 14, 6:00 AM)
Low73 °F (Apr 14, 6:00 AM)13% (Apr 18, 12:00 PM)29.74 "Hg (Apr 18, 4:00 PM)
Average85 °F62%29.86 "Hg
* Reported Apr 12 7:00 AM — Apr 27 7:00 AM, Olongapo, Weather by CustomWeather, © 2015

Note: Actual official high and low records may vary slightly from our data, if they occured in-between our weather recording intervals... More about our weather records

Advertising

Olongapo weather history for previous 24 hours

 ConditionsComfort  
Time TempWeatherWind HumidityBarometerVisibility
7:00 AM
Mon, Apr 27
81 °FScattered clouds.9 mph66%29.86 "HgN/A
6:00 AM79 °FScattered clouds.5 mph70%29.86 "HgN/A
5:00 AM79 °FPassing clouds.2 mph70%29.83 "HgN/A
3:00 AM79 °FPassing clouds.3 mph74%29.83 "HgN/A
2:00 AM79 °FPassing clouds.1 mph70%29.83 "HgN/A
1:00 AM79 °FPassing clouds.6 mph65%29.86 "HgN/A
12:00 AM81 °FPassing clouds.1 mph62%29.89 "HgN/A
11:00 PM
Sun, Apr 26
81 °FPassing clouds.6 mph62%29.89 "HgN/A
9:00 PM84 °FPassing clouds.5 mph62%29.86 "HgN/A
8:00 PM84 °FPassing clouds.7 mph66%29.86 "HgN/A
7:00 PM84 °FPassing clouds.7 mph70%29.86 "HgN/A
6:00 PM86 °FPartly sunny.5 mph66%29.83 "HgN/A
5:00 PM93 °FScattered clouds.7 mph39%29.80 "HgN/A
4:00 PM93 °FScattered clouds.13 mph39%29.80 "HgN/A
3:00 PM95 °FScattered clouds.13 mph39%29.80 "HgN/A
2:00 PM95 °FPartly sunny.9 mph36%29.83 "HgN/A
1:00 PM97 °FScattered clouds.12 mph34%29.86 "HgN/A
12:00 PM93 °FScattered clouds.12 mph41%29.89 "HgN/A
11:00 AM93 °FScattered clouds.14 mph44%29.89 "HgN/A
10:00 AM91 °FScattered clouds.12 mph44%29.92 "HgN/A
9:00 AM88 °FScattered clouds.9 mph52%29.92 "HgN/A
8:00 AM84 °FPassing clouds.5 mph62%29.89 "HgN/A
Weather by CustomWeather, © 2015

See weather overviewHow to use our weather pages